Torna al catalogo

GALILEO 28 (224)

AttivoNavigazioneMEO
NORAD 49810·PAYLOAD·🇪🇺 EU

Lanciato Dec 5, 2021 da Guiana Space Centre

Loading…

Prossimi Passaggi (prossime 24 ore)

TLE

AggiornatoSource: CelesTrak SupGP

Epoca: Sep 14, 2026, 23:59 UTC

1 49810C 21116B   26257.99979167  .00000000  00000+0  00000+0 0  2577
2 49810  57.1247 339.2481 0003239 218.4639  54.1317  1.70476718    13

Traccia GALILEO 28 (224) in tempo reale con AllMySat

Download on the App Store